Flag for Canada Weather past 2 weeks in Oshawa, Ontario, Canada

Now
70 °F

Passing clouds.


Feels Like: 70 °F
Forecast: 69 / 85 °F
Wind: 3 mph from North

Location: Toronto Buttonville

Current Time: Jul 29, 2015 at 3:59:58 AM

Latest Report: Jul 29, 2015 at 3:00 AM


Visibility: 15 mi

Pressure: 29.98 "Hg

Humidity: 73%

Dew point: 61 °F

Location of OshawaLocation

Historic Weather in Oshawa — Graph

°F

Oshawa temperature yesterday

Maximum temperature yesterday: 91 °F (at 5:00 PM)
Minimum temperature yesterday: 66 °F (at 6:00 AM)
Average temperature yesterday: 80 °F

Past Weeks' High & Low Weather Summary

 TemperatureHumidityPressure
High91 °F (Jul 27, 4:00 PM)100% (Jul 18, 4:48 AM)30.14 "Hg (Jul 18, 4:48 AM)
Low52 °F (Jul 15, 6:00 AM)32% (Jul 23, 3:00 PM)29.51 "Hg (Jul 14, 5:00 PM)
Average72 °F64%29.87 "Hg
* Reported Jul 14 3:00 AM — Jul 29 3:00 AM, Oshawa, Weather by CustomWeather, © 2015

Note: Actual official high and low records may vary slightly from our data, if they occured in-between our weather recording intervals... More about our weather records

Advertising

Oshawa weather history for previous 24 hours

 ConditionsComfort  
Time TempWeatherWind HumidityBarometerVisibility
3:00 AM
Wed, Jul 29
70 °FPassing clouds.3 mph73%29.98 "Hg15 mi
2:00 AM72 °FPassing clouds.2 mph69%29.98 "Hg15 mi
1:00 AM73 °FPassing clouds.No wind65%30.00 "Hg15 mi
12:00 AM75 °FPassing clouds.3 mph61%29.99 "Hg15 mi
11:00 PM
Tue, Jul 28
77 °FPassing clouds.3 mph57%29.98 "Hg15 mi
10:00 PM79 °FPassing clouds.2 mph51%29.98 "Hg15 mi
9:00 PM82 °FScattered clouds.No wind40%29.97 "Hg15 mi
8:00 PM84 °FPartly sunny.6 mph37%29.95 "Hg15 mi
7:00 PM88 °FPartly sunny.9 mph33%29.96 "Hg15 mi
6:00 PM90 °FPartly sunny.8 mph33%29.98 "Hg15 mi
5:00 PM91 °FPartly sunny.8 mph34%29.98 "Hg15 mi
4:00 PM90 °FScattered clouds.7 mph33%29.98 "Hg15 mi
3:00 PM90 °FScattered clouds.7 mph36%29.98 "Hg15 mi
2:00 PM90 °FPassing clouds.8 mph36%29.99 "Hg15 mi
1:00 PM88 °FPassing clouds.6 mph38%30.01 "Hg15 mi
12:00 PM86 °FSunny.5 mph40%30.01 "Hg15 mi
11:00 AM86 °FPassing clouds.3 mph43%30.02 "Hg15 mi
10:00 AM82 °FPassing clouds.No wind42%30.03 "Hg15 mi
9:00 AM79 °FPassing clouds.No wind54%30.03 "Hg15 mi
8:00 AM75 °FPassing clouds.No wind69%30.03 "Hg15 mi
7:00 AM68 °FPassing clouds.No wind83%30.03 "Hg15 mi
6:00 AM66 °FPassing clouds.No wind88%30.02 "Hg15 mi
5:00 AM70 °FPassing clouds.2 mph78%30.01 "Hg15 mi
4:00 AM70 °FClear.2 mph78%30.01 "Hg15 mi
3:00 AM70 °FClear.3 mph78%30.01 "Hg15 mi
Weather by CustomWeather, © 2015

See weather overviewHow to use our weather pages